カタログに戻る

BROKKER-2 ODIN

Lost科学HEO
NORAD 63102·PAYLOAD·🇺🇸 United States

打ち上げ Feb 27, 2025 から Cape Canaveral Space Force Station

Loading…

次のパス (今後24時間)

TLE

古いSource: Space-Track

元期: Feb 27, 2025, 00:53 UTC

1 63102U 25038D   25058.03746186 -.00007054  00000-0  00000-0 0  9992
2 63102  28.5200 357.2438 9653600 216.4100   0.0142  0.10463308    08

AllMySatでBROKKER-2 ODINをリアルタイム追跡

Download on the App Store